Date String (YYYY-MM-DD hh:mm:ss) UTC,Instrument flags,Ambient pressure (hPa),Sample flow (lpm),Bypass flow (lpm),Sample temperature (°C),Ambient temperature (°C),ASC tube jacket temperature (°C),LED temperature (°C),Box temperature (°C),Sample RH (%),Span deviation,Mass concentration (μg/m³),Mass concentration (μg/m³),Mass concentration (μg/m³)
DateTimeUTC,F1_M11,P_M11,Q1_M11,Q2_M11,T1_M11,T2_M11,T3_M11,T4_M11,T5_M11,U1_M11,ZSPAN_M11,X0_M11,X2_M11,X1_M11
2023-01-12 17:00:00,,0833.9,5.01,0.00,23.4,22.3,00.0,32.1,25.2,17.0,-000.8,0013.35,0009.12,0008.97
2023-01-12 17:01:00,,0833.9,4.99,0.00,23.4,22.3,00.0,32.1,25.2,16.8,-000.9,0013.35,0009.09,0008.93
2023-01-12 17:02:00,,0833.9,4.99,0.00,23.4,22.3,00.0,32.1,25.2,16.9,-001.0,0013.30,0009.04,0008.89
2023-01-12 17:03:00,,0834.0,4.99,0.00,23.4,22.3,00.0,32.1,25.2,16.3,-000.9,0013.30,0009.06,0008.91
2023-01-12 17:04:00,,0834.0,5.00,0.00,23.4,22.3,00.0,32.1,25.3,16.1,-001.0,0013.38,0009.12,0008.96
2023-01-12 17:05:00,,0834.0,5.01,0.00,23.4,22.2,00.0,32.2,25.3,16.9,-001.0,0013.65,0009.28,0009.11
2023-01-12 17:06:00,,0834.0,5.00,0.00,23.4,22.2,00.0,32.2,25.3,17.8,-001.0,0014.04,0009.56,0009.37
2023-01-12 17:07:00,,0834.0,5.01,0.00,23.4,22.2,00.0,32.2,25.2,17.6,-001.0,0014.51,0009.88,0009.68
2023-01-12 17:08:00,,0834.0,5.00,0.00,23.4,22.2,00.0,32.2,25.2,16.7,-000.8,0014.91,0010.18,0009.96
2023-01-12 17:09:00,,0834.0,5.00,0.00,23.4,22.3,00.0,32.2,25.2,15.4,-000.7,0015.07,0010.32,0010.11
2023-01-12 17:10:00,,0834.0,4.99,0.00,23.4,22.3,00.0,32.2,25.2,16.2,-000.6,0015.35,0010.56,0010.36
2023-01-12 17:11:00,,0834.0,5.00,0.00,23.4,22.3,00.0,32.2,25.2,16.6,-000.7,0015.68,0010.79,0010.59
2023-01-12 17:12:00,,0834.0,4.99,0.00,23.4,22.3,00.0,32.2,25.2,16.4,-000.6,0015.97,0011.01,0010.82
2023-01-12 17:13:00,,0833.9,4.99,0.00,23.5,22.3,00.0,32.2,25.2,16.5,-000.4,0016.28,0011.26,0011.06
2023-01-12 17:14:00,,0833.9,4.98,0.00,23.5,22.3,00.0,32.2,25.3,16.4,-000.3,0016.54,0011.44,0011.24
2023-01-12 17:15:00,,0833.9,5.00,0.00,23.5,22.4,00.0,32.2,25.2,16.0,-000.4,0016.56,0011.48,0011.28
2023-01-12 17:16:00,,0833.9,5.00,0.00,23.5,22.4,00.0,32.3,25.2,16.8,-000.4,0016.53,0011.48,0011.30
2023-01-12 17:17:00,,0833.9,5.00,0.00,23.5,22.4,00.0,32.3,25.3,17.3,-000.3,0016.51,0011.48,0011.29
2023-01-12 17:18:00,,0833.9,5.00,0.00,23.5,22.4,00.0,32.3,25.3,16.9,-000.4,0016.33,0011.35,0011.16
2023-01-12 17:19:00,,0834.0,5.01,0.00,23.6,22.4,00.0,32.3,25.3,16.6,-000.5,0016.59,0011.24,0011.04
2023-01-12 17:20:00,,0833.9,5.00,0.00,23.6,22.4,00.0,32.3,25.4,16.6,-000.5,0016.76,0011.27,0011.07
2023-01-12 17:21:00,,0833.9,4.99,0.00,23.6,22.5,00.0,32.3,25.4,16.0,-000.6,0016.64,0011.15,0010.94
2023-01-12 17:22:00,,0833.9,4.98,0.00,23.6,22.5,00.0,32.3,25.5,15.3,-000.6,0016.35,0010.95,0010.76
2023-01-12 17:23:00,,0833.9,4.99,0.00,23.6,22.5,00.0,32.3,25.5,15.1,-000.7,0016.10,0010.77,0010.58
2023-01-12 17:24:00,,0833.9,5.00,0.00,23.6,22.5,00.0,32.4,25.4,15.3,-000.7,0015.99,0010.61,0010.42
2023-01-12 17:25:00,,0833.8,5.01,0.00,23.6,22.5,00.0,32.4,25.4,16.0,-000.8,0015.79,0010.45,0010.25
2023-01-12 17:26:00,,0833.9,5.00,0.00,23.6,22.5,00.0,32.4,25.5,16.8,-000.7,0015.82,0010.47,0010.25
2023-01-12 17:27:00,,0833.9,5.01,0.00,23.7,22.5,00.0,32.4,25.5,16.1,-000.6,0015.69,0010.38,0010.16
2023-01-12 17:28:00,,0833.8,4.99,0.00,23.7,22.6,00.0,32.4,25.5,16.9,-000.5,0015.57,0010.30,0010.07
2023-01-12 17:29:00,,0833.8,5.00,0.00,23.7,22.6,00.0,32.4,25.5,16.4,-000.4,0015.57,0010.22,0010.01
2023-01-12 17:30:00,,0833.8,4.99,0.00,23.7,22.6,00.0,32.4,25.6,15.9,-000.2,0015.26,0010.16,0009.96
2023-01-12 17:31:00,,0833.8,4.99,0.00,23.7,22.6,00.0,32.4,25.6,15.5,-000.0,0014.96,0010.10,0009.89
2023-01-12 17:32:00,,0833.7,4.99,0.00,23.7,22.7,00.0,32.4,25.6,15.1,0000.2,0014.96,0010.08,0009.87
2023-01-12 17:33:00,,0833.7,5.01,0.00,23.7,22.7,00.0,32.5,25.6,14.6,0000.3,0014.97,0010.07,0009.85
2023-01-12 17:34:00,,0833.8,4.99,0.00,23.8,22.7,00.0,32.5,25.6,15.1,0000.3,0014.96,0010.07,0009.85
2023-01-12 17:35:00,,0833.8,4.99,0.00,23.8,22.7,00.0,32.5,25.6,15.3,0000.2,0014.84,0010.03,0009.84
2023-01-12 17:36:00,,0833.9,5.00,0.00,23.8,22.7,00.0,32.5,25.6,15.8,0000.2,0014.77,0009.97,0009.80
2023-01-12 17:37:00,,0833.9,5.00,0.00,23.8,22.7,00.0,32.5,25.7,15.7,0000.1,0014.61,0009.83,0009.67
2023-01-12 17:38:00,,0833.9,5.00,0.00,23.8,22.8,00.0,32.5,25.7,16.1,0000.0,0014.50,0009.74,0009.56
2023-01-12 17:39:00,,0833.8,5.00,0.00,23.8,22.8,00.0,32.6,25.7,15.6,-000.2,0014.41,0009.60,0009.42
2023-01-12 17:40:00,,0833.7,4.99,0.00,23.8,22.8,00.0,32.6,25.7,14.7,-000.4,0014.34,0009.46,0009.27
2023-01-12 17:41:00,,0833.7,4.99,0.00,23.9,22.8,00.0,32.6,25.8,15.6,-000.4,0015.10,0009.36,0009.18
2023-01-12 17:42:00,,0833.7,5.00,0.00,23.9,22.7,00.0,32.6,25.8,15.8,-000.6,0015.76,0009.35,0009.17
2023-01-12 17:43:00,,0833.7,5.01,0.00,23.9,22.7,00.0,32.6,25.7,16.8,-000.8,0016.16,0009.44,0009.24
2023-01-12 17:44:00,,0833.7,5.01,0.00,23.9,22.7,00.0,32.6,25.7,17.5,-001.0,0016.75,0009.65,0009.41
2023-01-12 17:45:00,,0833.7,5.00,0.00,23.9,22.7,00.0,32.6,25.7,17.2,-001.0,0017.37,0009.89,0009.62
2023-01-12 17:46:00,,0833.8,5.00,0.00,23.9,22.8,00.0,32.6,25.7,17.8,-001.0,0018.74,0010.14,0009.82
2023-01-12 17:47:00,,0833.7,5.01,0.00,23.9,22.8,00.0,32.7,25.7,17.4,-001.0,0019.33,0010.33,0009.97
2023-01-12 17:48:00,,0833.7,4.99,0.00,23.9,22.8,00.0,32.7,25.8,17.1,-001.1,0020.00,0010.49,0010.10
2023-01-12 17:49:00,,0833.7,4.99,0.00,23.9,22.8,00.0,32.7,25.8,16.9,-001.3,0021.33,0010.65,0010.24
2023-01-12 17:50:00,,0833.7,5.00,0.00,23.9,22.9,00.0,32.7,25.8,17.0,-001.3,0021.59,0010.83,0010.37
2023-01-12 17:51:00,,0833.6,4.99,0.00,24.0,22.9,00.0,32.7,25.9,16.7,-001.2,0021.95,0011.02,0010.53
2023-01-12 17:52:00,,0833.6,5.00,0.00,24.0,22.9,00.0,32.7,25.9,16.4,-001.3,0021.41,0011.12,0010.62
2023-01-12 17:53:00,,0833.6,5.00,0.00,24.0,22.9,00.0,32.7,25.9,16.7,-001.4,0020.65,0011.17,0010.66
2023-01-12 17:54:00,,0833.6,4.99,0.00,24.0,22.9,00.0,32.7,25.8,17.2,-001.4,0020.67,0011.28,0010.73
2023-01-12 17:55:00,,0833.6,4.99,0.00,24.0,22.9,00.0,32.8,25.8,17.3,-001.3,0020.67,0011.34,0010.82
2023-01-12 17:56:00,,0833.6,5.00,0.00,24.0,22.9,00.0,32.8,25.8,17.5,-001.2,0020.60,0011.36,0010.86
2023-01-12 17:57:00,,0833.6,5.00,0.00,24.0,22.9,00.0,32.8,25.8,17.0,-001.3,0020.19,0011.31,0010.81
2023-01-12 17:58:00,,0833.6,5.00,0.00,24.0,22.9,00.0,32.8,25.9,16.7,-001.4,0019.84,0011.31,0010.81
2023-01-12 17:59:00,,0833.6,5.00,0.00,24.0,22.9,00.0,32.8,25.9,16.2,-001.3,0019.50,0011.31,0010.83
